This is the latest recevied weather packets stored in our database for station/object W4DEX-2. If no packets are shown the sender has not sent any weather packets the latest 10 day(s).
| Time | Temp. | Humidity | Pressure | Rain* | Wind** | Luminosity | Snow |
|---|---|---|---|---|---|---|---|
| 1777459502 | 14.44° C | 89% | 1013.8 hPa | 0 mm | 6.26 m/s, 178° | - | - |
| 1777459203 | 14.44° C | 89% | 1013.9 hPa | 0 mm | 4.92 m/s, 175° | - | - |
| 1777458903 | 14.44° C | 89% | 1013.8 hPa | 0 mm | 4.92 m/s, 175° | - | - |
| 1777458603 | 14.44° C | 89% | 1013.8 hPa | 0 mm | 4.92 m/s, 175° | - | - |
| 1777458303 | 14.44° C | 89% | 1013.8 hPa | 0 mm | 4.92 m/s, 174° | - | - |
| 1777458002 | 14.44° C | 89% | 1013.9 hPa | 0 mm | 5.36 m/s, 175° | - | - |
| 1777457702 | 14.44° C | 89% | 1013.9 hPa | 0 mm | 4.02 m/s, 179° | - | - |
| 1777457402 | 14.44° C | 89% | 1013.8 hPa | 0 mm | 4.92 m/s, 175° | - | - |
| 1777456502 | 14.44° C | 89% | 1013.7 hPa | 0 mm | 4.92 m/s, 174° | - | - |
| 1777456202 | 14.44° C | 89% | 1013.6 hPa | 0 mm | 4.02 m/s, 174° | - | - |
| 1777455903 | 14.44° C | 89% | 1013.7 hPa | 0 mm | 3.58 m/s, 176° | - | - |
| 1777455302 | 14.44° C | 89% | 1013.6 hPa | 0 mm | 5.81 m/s, 177° | - | - |
| 1777455002 | 13.89° C | 89% | 1013.8 hPa | 0 mm | 5.81 m/s, 175° | - | - |
| 1777454702 | 13.89° C | 89% | 1013.8 hPa | 0 mm | 5.81 m/s, 175° | - | - |
| 1777454404 | 13.89° C | 89% | 1013.8 hPa | 0 mm | 5.36 m/s, 175° | - | - |
| 1777454103 | 13.89° C | 89% | 1013.9 hPa | 0 mm | 4.47 m/s, 174° | - | - |
| 1777453802 | 13.89° C | 89% | 1014 hPa | 0 mm | 4.92 m/s, 176° | - | - |
| 1777453202 | 13.89° C | 89% | 1014.1 hPa | 0 mm | 4.92 m/s, 176° | - | - |
| 1777452902 | 13.89° C | 89% | 1014.4 hPa | 0 mm | 5.81 m/s, 174° | - | - |
| 1777452002 | 13.89° C | 89% | 1014.3 hPa | 0 mm | 4.92 m/s, 177° | - | - |
| 1777451702 | 13.89° C | 89% | 1014.2 hPa | 0 mm | 5.36 m/s, 177° | - | - |
| 1777451403 | 13.89° C | 89% | 1014.1 hPa | 0 mm | 4.92 m/s, 175° | - | - |
| 1777451102 | 13.89° C | 89% | 1014.1 hPa | 0 mm | 4.92 m/s, 175° | - | - |
| 1777450810 | 13.89° C | 89% | 1014.1 hPa | 0 mm | 5.36 m/s, 176° | - | - |
| 1777450502 | 13.89° C | 89% | 1013.8 hPa | 0 mm | 4.92 m/s, 177° | - | - |
* Rain latest hour (hover to see other rain measurements)
** Current wind speed in m/s (hover to see current wind gust speed)